SCP
0 -0 -0 -0 -0 -0 -0 -0 -0 -0 -0 -0 0 0 0 -0 -0 0 0 0 -0 -0 0 0 0 0 0 0 0 0 0 0 -0 0 -0 -0 -0 -0 -0 -0 -0 -0 -0
-0 -0 -0 -0 -0 -0 -0 -1 -0 -0 -0 -0 -0 -0 -0 -0 -0 0 0 0 0 0 0 0 0 0 0 0 0 -0 0 -0 -0 0 -0 -0 -0 -0 -0 -0 -0 -0 -0
-0 -0 -0 -0 -1 -0 -0 -0 -0 -0 -0 -0 -0 0 -0 -0 0 0 0 0 0 0 0 0 0 0 0 0 0 0 0 0 0 0 0 0 0 -0 -0 -0 -0 -0 -0
-0 -0 -0 -0 -0 -1 -1 -0 -0 -0 -0 -0 -0 -0 -0 0 0 0 0 0 0 0 0 0 0 0 0 0 0 0 0 0 0 0 -0 -0 0 -0 0 0 0 0 0
-0 -0 -0 -0 -0 -0 -0 -0 -0 -0 -0 -0 -0 -0 -0 0 0 0 0 0 0 0 0 0 0 0 0 0 0 0 0 0 0 0 0 0 0 0 -0 0 0 0 0
-0 -0 -0 -0 -0 -0 -0 -0 -0 -0 -0 -0 -0 -0 -0 -0 0 0 0 0 0 0 0 0 0 0 0 0 0 0 0 0 0 0 0 0 0 -0 -0 0 0 0 0
0 0 -0 -0 -0 -0 -0 -0 -0 -0 -0 -0 -0 -0 -0 -0 -0 0 0 0 0 0 0 0 0 0 0 0 0 0 0 0 0 0 0 0 0 -0 -0 0 0 0 0
0 0 -0 -0 -0 -0 -0 -0 0 0 0 0 0 -0 -0 -0 0 0 0 0 0 0 0 0 0 0 0 0 0 0 0 0 0 0 0 0 0 0 0 0 0 0 0
0 0 0 0 -0 -0 -0 -0 -0 0 0 0 0 0 0 0 0 0 0 0 0 0 0 0 0 0 0 0 0 0 0 0 0 0 0 0 0 0 0 0 0 0 0
0 0 0 0 0 0 0 -0 -0 0 0 0 0 0 0 0 0 0 0 0 0 0 0 0 0 0 0 0 0 0 0 0 0 0 0 0 0 0 0 0 0 0 0
0 0 0 0 0 0 0 0 0 0 0 0 0 0 0 0 0 0 0 0 0 0 0 0 0 0 0 0 0 0 0 0 0 0 0 0 0 0 0 0 0 0 0
0 0 0 0 0 0 0 0 0 0 0 0 0 0 0 0 0 0 0 0 0 0 0 0 0 0 0 0 0 0 0 0 0 0 0 0 0 0 0 0 0 0 0
0 0 0 0 0 0 0 0 0 0 0 0 0 0 0 0 0 0 0 0 0 0 0 0 0 0 0 0 0 0 0 0 0 0 0 0 0 0 0 0 0 0 0
0 0 0 0 0 0 0 0 0 0 0 0 0 0 0 0 0 0 0 0 0 0 0 0 0 0 0 0 0 0 0 0 0 0 0 0 0 0 0 0 0 0 0
0 0 0 0 0 0 0 0 0 0 0 0 0 0 0 0 0 0 0 0 0 0 0 0 0 0 0 0 0 0 0 0 0 0 0 0 0 0 0 0 0 0 0
0 0 0 0 0 0 0 0 0 0 0 0 0 0 0 0 0 0 0 0 0 0 0 0 0 0 0 0 0 0 0 0 0 0 0 0 0 0 0 0 0 0 0
0 0 0 0 0 0 0 0 0 0 0 0 0 0 0 0 0 0 0 0 0 0 0 0 0 0 0 0 0 0 0 0 0 0 0 0 0 0 0 0 0 0 0
0 0 0 0 0 0 0 0 0 0 0 0 0 0 0 0 0 0 0 0 0 0 0 0 0 0 0 0 0 0 0 0 0 0 0 0 0 0 0 0 0 0 0
0 0 0 0 0 0 0 0 0 0 0 0 0 0 0 0 0 0 0 0 0 0 0 0 0 0 0 0 0 0 0 0 0 0 0 0 0 0 0 0 0 0 0
0 0 0 0 0 0 0 0 0 0 0 0 0 0 0 0 0 0 0 0 0 0 0 0 0 0 0 0 0 0 0 0 0 0 0 0 0 0 0 0 0 0 0
0 0 0 0 0 0 0 0 0 0 0 0 0 0 0 0 0 0 0 0 0 0 0 0 0 0 0 0 0 0 0 0 0 0 0 0 0 0 0 0 0 0 0
0 0 0 0 0 0 0 0 0 0 0 0 0 0 0 0 0 0 0 0 0 0 0 0 0 0 0 0 0 0 0 0 0 0 0 0 0 0 0 0 0 0 0
0 0 0 0 0 0 0 0 0 0 0 0 0 0 0 0 0 0 0 0 0 0 0 0 0 0 0 0 0 0 0 0 0 0 0 0 0 0 0 0 0 0 0
0 0 0 0 0 0 0 0 0 0 0 0 0 0 0 0 0 0 0 0 0 0 0 0 0 0 0 0 0 0 0 0 0 0 0 0 0 0 0 0 0 0 0
0 0 0 0 0 0 0 0 0 0 0 0 0 0 0 0 0 0 0 0 0 0 0 0 0 0 0 0 0 0 0 0 0 0 0 0 0 0 0 0 0 0 0
0 0 0 0 0 0 0 0 0 0 0 0 0 0 0 0 0 0 0 0 0 0 0 0 0 0 0 0 0 0 0 0 0 0 0 0 0 0 0 0 0 0 0
Wind_Speed_500mb
20 25 39 38 36 36 38 36 32 26 22 19 16 14 14 14 11 12 10 6 3 3 6 8 9 10 8 8 7 7 9 12 15 18 17 15 15 19 17 19 16 19 14
15 29 42 39 37 37 36 34 32 28 23 18 16 14 12 9 11 11 10 6 4 4 3 4 6 6 6 5 7 6 9 13 17 20 15 11 6 11 14 15 16 18 18
16 29 42 41 39 38 37 34 31 27 24 21 19 16 16 17 15 13 11 9 7 6 2 3 6 6 5 2 1 6 8 12 19 18 14 9 5 5 9 10 13 11 12
13 28 39 40 41 39 38 36 32 29 26 24 23 22 18 13 13 16 16 13 12 9 5 6 8 8 8 5 3 6 10 13 19 12 10 8 5 5 7 8 8 6 8
17 22 37 40 41 41 40 37 33 31 29 26 25 25 18 15 18 18 17 17 18 10 7 10 9 9 8 8 6 9 12 18 24 17 18 7 2 4 6 9 7 6 4
19 20 31 43 43 41 41 39 35 34 32 29 27 25 21 24 22 19 19 21 18 12 11 12 9 8 6 3 4 8 14 18 24 22 22 15 12 9 9 9 6 4 3
19 23 26 37 43 43 43 41 38 37 35 32 31 26 25 29 23 19 20 19 17 16 14 11 9 7 5 5 6 8 12 16 21 22 21 24 19 14 4 8 6 4 4
19 21 26 30 40 44 44 43 40 38 36 35 33 30 25 29 23 17 21 19 19 19 16 12 10 9 7 7 7 9 12 14 21 25 25 16 25 23 8 6 8 9 10
18 23 27 30 35 42 46 45 42 40 38 36 33 35 32 33 31 21 23 21 20 19 15 12 12 11 10 9 8 9 10 12 18 20 21 20 20 26 21 13 11 13 14
22 26 28 33 36 41 47 48 45 42 41 39 41 40 38 42 30 27 25 22 21 21 18 15 15 14 12 11 10 11 11 13 19 18 16 16 18 19 18 15 16 15 16
27 31 32 33 38 39 46 49 47 46 46 44 46 44 47 46 35 29 27 26 25 24 20 19 17 16 15 13 13 13 14 16 19 16 15 17 19 17 17 17 16 17 17
35 38 39 37 36 40 45 50 52 52 50 50 51 50 52 50 42 32 31 30 29 27 24 23 23 22 20 18 18 15 16 17 19 16 16 18 18 17 17 17 17 17 15
37 37 42 41 41 41 44 46 54 55 55 55 55 55 55 52 48 40 36 34 33 31 29 28 26 26 24 22 21 18 20 20 20 18 19 19 19 20 20 21 20 18 17
45 38 37 38 40 44 46 47 47 50 54 57 58 57 59 57 55 49 43 39 37 34 33 33 32 33 30 27 25 24 24 23 23 21 21 21 21 21 22 24 21 19 17
45 42 40 41 41 40 45 50 49 48 48 48 55 58 60 61 60 58 50 44 41 39 37 38 38 38 35 33 31 30 29 27 26 24 24 23 23 23 24 23 22 18 19
38 37 37 40 42 41 40 48 53 52 51 48 50 52 58 57 58 61 55 48 46 44 41 41 41 41 40 39 36 34 33 30 29 28 26 25 25 26 26 24 23 22 24
39 34 33 30 37 41 40 39 49 54 54 54 52 51 52 50 51 56 54 51 50 48 47 46 46 48 47 46 43 41 39 36 35 34 31 29 29 28 28 27 22 29 31
14 24 22 18 25 33 36 37 39 48 53 49 48 49 50 51 50 52 52 49 51 54 53 53 51 50 50 51 48 46 45 45 43 40 37 36 32 31 30 30 32 42 35
11 17 21 14 12 21 29 32 34 39 43 44 44 48 48 45 44 46 47 47 50 56 60 59 58 55 55 55 54 53 53 51 48 47 45 42 39 38 34 34 38 44 39
17 20 25 24 19 12 18 25 30 30 33 39 42 42 45 46 46 48 49 52 54 57 61 62 60 59 60 57 56 58 58 57 57 55 52 48 49 46 42 41 46 49 45
19 21 21 14 10 13 12 16 21 24 22 26 30 34 38 41 45 49 50 51 55 60 62 62 62 62 62 62 61 64 64 65 66 65 60 55 56 55 50 46 49 52 52
49 38 25 20 16 14 12 11 10 9 13 15 18 21 24 30 37 43 47 48 50 56 63 66 66 67 66 66 68 69 59 72 78 73 69 65 63 63 59 53 55 57 58
63 61 52 44 35 26 16 5 4 10 13 15 16 19 21 21 26 32 39 45 48 53 59 63 66 68 70 71 75 66 26 41 53 63 76 76 72 70 67 62 62 62 61
53 49 49 48 47 44 37 31 25 21 16 12 12 14 14 13 13 20 26 34 44 50 55 58 60 66 68 74 78 84 86 67 38 33 48 64 77 78 74 71 69 68 65
42 42 40 36 34 33 31 30 28 25 22 18 14 14 13 12 13 12 19 24 30 41 51 59 63 64 67 71 79 85 90 91 86 62 59 60 65 71 77 79 75 73 71
36 35 34 33 33 30 28 27 26 25 24 22 23 24 24 25 24 26 24 22 24 29 37 48 59 63 65 69 77 82 89 90 90 95 88 87 82 78 77 77 76 77 76
Wind_Direction_500mb
179 185 188 188 188 185 179 176 179 182 184 180 180 174 170 169 151 153 170 193 238 338 356 13 34 48 53 62 70 83 90 87 91 94 93 86 98 94 73 74 79 84 94
178 178 187 191 194 193 190 185 184 189 189 188 188 189 192 177 170 158 157 178 225 280 335 2 21 34 36 49 84 87 94 97 100 106 92 71 76 117 106 84 75 94 86
185 184 188 192 198 199 199 197 194 195 196 199 200 198 186 196 190 201 210 232 252 270 316 330 332 348 335 343 85 116 112 116 109 99 92 51 30 145 129 110 98 83 101
206 195 194 194 198 204 206 204 204 207 207 207 204 198 200 212 202 215 234 250 261 275 301 300 307 322 315 291 227 173 149 140 131 124 114 108 14 99 120 162 137 133 109
220 207 200 201 202 205 208 209 211 211 212 209 199 212 230 241 237 239 243 249 264 276 284 286 306 312 301 280 237 193 174 162 167 167 131 150 195 133 118 153 163 179 204
223 219 207 206 205 208 210 211 212 213 213 215 218 224 240 249 252 251 238 243 253 264 273 287 298 301 292 260 213 199 186 182 189 189 182 177 192 223 259 199 177 186 203
226 221 212 213 213 213 214 215 216 215 215 212 219 230 241 251 244 231 235 236 253 264 269 272 276 258 218 187 177 176 183 187 203 196 196 201 211 240 275 170 187 218 236
224 227 222 217 218 220 220 220 219 219 217 215 225 238 242 253 256 234 234 241 250 255 253 254 245 215 193 187 180 181 191 188 209 205 209 216 213 233 215 188 231 246 254
240 234 232 226 224 223 223 223 222 220 219 220 224 229 232 244 251 242 233 235 244 249 253 247 228 210 199 201 198 203 215 207 221 226 227 234 234 246 273 267 251 249 255
254 253 242 235 229 228 225 225 221 221 221 220 225 231 233 244 253 239 238 242 242 244 245 233 215 212 212 215 215 220 228 223 232 237 234 232 241 248 258 262 259 259 257
250 252 254 247 237 232 227 228 228 222 221 223 226 232 239 248 257 247 239 241 242 246 244 232 223 223 228 232 233 234 234 234 243 248 251 251 251 249 251 255 261 261 263
265 256 253 252 249 236 228 227 230 229 227 226 228 232 237 247 257 254 244 246 248 249 243 231 226 226 230 235 238 239 240 246 254 251 248 254 256 254 253 255 256 257 261
286 260 258 255 252 246 237 233 231 232 232 232 232 233 237 245 253 259 249 250 248 247 245 238 234 235 236 240 246 245 247 251 257 259 259 260 261 263 262 261 258 262 265
285 287 265 260 255 253 247 240 237 232 233 233 234 232 235 244 252 261 255 249 249 248 244 240 236 240 243 244 245 245 247 250 252 253 254 254 254 255 256 260 262 261 262
272 275 277 263 262 259 249 245 244 243 239 239 239 238 240 248 254 260 256 252 250 249 246 243 240 241 242 244 243 244 246 248 250 251 250 249 247 246 245 253 251 243 208
282 274 271 265 259 262 259 245 242 243 247 246 245 248 250 251 254 260 257 252 251 252 251 249 245 243 242 244 246 247 249 251 253 253 251 249 248 244 243 245 244 201 216
251 256 267 265 261 257 260 256 241 238 244 251 256 259 258 262 263 267 257 256 258 258 254 251 245 242 242 243 245 248 250 252 254 255 255 254 254 251 247 239 226 209 216
239 230 230 265 260 254 261 262 249 239 241 245 250 255 261 265 267 264 262 258 262 260 258 257 256 252 249 248 248 250 250 250 250 252 253 253 255 254 252 250 210 218 249
121 158 178 199 242 253 251 253 257 247 243 245 248 254 261 264 267 266 269 268 266 262 261 260 259 258 255 253 251 250 249 251 252 254 253 253 254 252 246 240 226 232 261
104 129 153 160 160 203 234 237 239 245 247 244 247 251 262 268 269 271 272 271 268 263 259 259 259 260 259 255 252 249 248 248 248 250 248 248 252 251 246 240 236 243 259
87 105 113 143 145 191 186 212 225 231 240 254 258 264 266 268 271 273 274 272 270 268 267 265 262 259 257 253 250 251 250 248 247 247 245 244 246 249 244 242 240 245 249
69 72 75 79 91 117 125 139 162 178 216 239 248 254 263 271 274 276 278 278 276 273 270 266 263 260 257 251 245 249 253 255 252 251 248 244 245 247 247 243 243 243 246
67 64 66 66 68 71 72 95 189 206 225 239 245 259 267 266 285 286 283 283 282 279 275 272 269 266 262 255 250 241 241 247 258 254 250 247 244 245 247 243 245 245 245
60 61 61 62 63 64 64 63 60 65 62 38 352 318 287 287 290 301 296 288 284 282 279 276 274 270 266 260 255 250 244 253 266 266 259 250 245 245 244 246 245 246 245
55 51 49 47 48 47 46 51 51 50 45 27 4 353 343 307 293 291 302 305 291 278 277 275 271 268 267 266 262 260 257 251 251 258 264 260 251 250 249 246 246 247 247
49 48 44 38 38 34 29 27 25 21 16 5 2 357 355 343 324 312 302 293 295 299 295 283 272 269 267 266 262 260 260 256 254 252 256 258 262 261 257 253 248 248 247
Wind_Speed_850mb
20 25 39 38 36 36 38 36 32 26 22 19 16 14 14 14 11 12 10 6 3 3 6 8 9 10 8 8 7 7 9 12 15 18 17 15 15 19 17 19 16 19 14
15 29 42 39 37 37 36 34 32 28 23 18 16 14 12 9 11 11 10 6 4 4 3 4 6 6 6 5 7 6 9 13 17 20 15 11 6 11 14 15 16 18 18
16 29 42 41 39 38 37 34 31 27 24 21 19 16 16 17 15 13 11 9 7 6 2 3 6 6 5 2 1 6 8 12 19 18 14 9 5 5 9 10 13 11 12
13 28 39 40 41 39 38 36 32 29 26 24 23 22 18 13 13 16 16 13 12 9 5 6 8 8 8 5 3 6 10 13 19 12 10 8 5 5 7 8 8 6 8
17 22 37 40 41 41 40 37 33 31 29 26 25 25 18 15 18 18 17 17 18 10 7 10 9 9 8 8 6 9 12 18 24 17 18 7 2 4 6 9 7 6 4
19 20 31 43 43 41 41 39 35 34 32 29 27 25 21 24 22 19 19 21 18 12 11 12 9 8 6 3 4 8 14 18 24 22 22 15 12 9 9 9 6 4 3
19 23 26 37 43 43 43 41 38 37 35 32 31 26 25 29 23 19 20 19 17 16 14 11 9 7 5 5 6 8 12 16 21 22 21 24 19 14 4 8 6 4 4
19 21 26 30 40 44 44 43 40 38 36 35 33 30 25 29 23 17 21 19 19 19 16 12 10 9 7 7 7 9 12 14 21 25 25 16 25 23 8 6 8 9 10
18 23 27 30 35 42 46 45 42 40 38 36 33 35 32 33 31 21 23 21 20 19 15 12 12 11 10 9 8 9 10 12 18 20 21 20 20 26 21 13 11 13 14
22 26 28 33 36 41 47 48 45 42 41 39 41 40 38 42 30 27 25 22 21 21 18 15 15 14 12 11 10 11 11 13 19 18 16 16 18 19 18 15 16 15 16
27 31 32 33 38 39 46 49 47 46 46 44 46 44 47 46 35 29 27 26 25 24 20 19 17 16 15 13 13 13 14 16 19 16 15 17 19 17 17 17 16 17 17
35 38 39 37 36 40 45 50 52 52 50 50 51 50 52 50 42 32 31 30 29 27 24 23 23 22 20 18 18 15 16 17 19 16 16 18 18 17 17 17 17 17 15
37 37 42 41 41 41 44 46 54 55 55 55 55 55 55 52 48 40 36 34 33 31 29 28 26 26 24 22 21 18 20 20 20 18 19 19 19 20 20 21 20 18 17
45 38 37 38 40 44 46 47 47 50 54 57 58 57 59 57 55 49 43 39 37 34 33 33 32 33 30 27 25 24 24 23 23 21 21 21 21 21 22 24 21 19 17
45 42 40 41 41 40 45 50 49 48 48 48 55 58 60 61 60 58 50 44 41 39 37 38 38 38 35 33 31 30 29 27 26 24 24 23 23 23 24 23 22 18 19
38 37 37 40 42 41 40 48 53 52 51 48 50 52 58 57 58 61 55 48 46 44 41 41 41 41 40 39 36 34 33 30 29 28 26 25 25 26 26 24 23 22 24
39 34 33 30 37 41 40 39 49 54 54 54 52 51 52 50 51 56 54 51 50 48 47 46 46 48 47 46 43 41 39 36 35 34 31 29 29 28 28 27 22 29 31
14 24 22 18 25 33 36 37 39 48 53 49 48 49 50 51 50 52 52 49 51 54 53 53 51 50 50 51 48 46 45 45 43 40 37 36 32 31 30 30 32 42 35
11 17 21 14 12 21 29 32 34 39 43 44 44 48 48 45 44 46 47 47 50 56 60 59 58 55 55 55 54 53 53 51 48 47 45 42 39 38 34 34 38 44 39
17 20 25 24 19 12 18 25 30 30 33 39 42 42 45 46 46 48 49 52 54 57 61 62 60 59 60 57 56 58 58 57 57 55 52 48 49 46 42 41 46 49 45
19 21 21 14 10 13 12 16 21 24 22 26 30 34 38 41 45 49 50 51 55 60 62 62 62 62 62 62 61 64 64 65 66 65 60 55 56 55 50 46 49 52 52
49 38 25 20 16 14 12 11 10 9 13 15 18 21 24 30 37 43 47 48 50 56 63 66 66 67 66 66 68 69 59 72 78 73 69 65 63 63 59 53 55 57 58
63 61 52 44 35 26 16 5 4 10 13 15 16 19 21 21 26 32 39 45 48 53 59 63 66 68 70 71 75 66 26 41 53 63 76 76 72 70 67 62 62 62 61
53 49 49 48 47 44 37 31 25 21 16 12 12 14 14 13 13 20 26 34 44 50 55 58 60 66 68 74 78 84 86 67 38 33 48 64 77 78 74 71 69 68 65
42 42 40 36 34 33 31 30 28 25 22 18 14 14 13 12 13 12 19 24 30 41 51 59 63 64 67 71 79 85 90 91 86 62 59 60 65 71 77 79 75 73 71
36 35 34 33 33 30 28 27 26 25 24 22 23 24 24 25 24 26 24 22 24 29 37 48 59 63 65 69 77 82 89 90 90 95 88 87 82 78 77 77 76 77 76
Wind_Direction_850mb
179 185 188 188 188 185 179 176 179 182 184 180 180 174 170 169 151 153 170 193 238 338 356 13 34 48 53 62 70 83 90 87 91 94 93 86 98 94 73 74 79 84 94
178 178 187 191 194 193 190 185 184 189 189 188 188 189 192 177 170 158 157 178 225 280 335 2 21 34 36 49 84 87 94 97 100 106 92 71 76 117 106 84 75 94 86
185 184 188 192 198 199 199 197 194 195 196 199 200 198 186 196 190 201 210 232 252 270 316 330 332 348 335 343 85 116 112 116 109 99 92 51 30 145 129 110 98 83 101
206 195 194 194 198 204 206 204 204 207 207 207 204 198 200 212 202 215 234 250 261 275 301 300 307 322 315 291 227 173 149 140 131 124 114 108 14 99 120 162 137 133 109
220 207 200 201 202 205 208 209 211 211 212 209 199 212 230 241 237 239 243 249 264 276 284 286 306 312 301 280 237 193 174 162 167 167 131 150 195 133 118 153 163 179 204
223 219 207 206 205 208 210 211 212 213 213 215 218 224 240 249 252 251 238 243 253 264 273 287 298 301 292 260 213 199 186 182 189 189 182 177 192 223 259 199 177 186 203
226 221 212 213 213 213 214 215 216 215 215 212 219 230 241 251 244 231 235 236 253 264 269 272 276 258 218 187 177 176 183 187 203 196 196 201 211 240 275 170 187 218 236
224 227 222 217 218 220 220 220 219 219 217 215 225 238 242 253 256 234 234 241 250 255 253 254 245 215 193 187 180 181 191 188 209 205 209 216 213 233 215 188 231 246 254
240 234 232 226 224 223 223 223 222 220 219 220 224 229 232 244 251 242 233 235 244 249 253 247 228 210 199 201 198 203 215 207 221 226 227 234 234 246 273 267 251 249 255
254 253 242 235 229 228 225 225 221 221 221 220 225 231 233 244 253 239 238 242 242 244 245 233 215 212 212 215 215 220 228 223 232 237 234 232 241 248 258 262 259 259 257
250 252 254 247 237 232 227 228 228 222 221 223 226 232 239 248 257 247 239 241 242 246 244 232 223 223 228 232 233 234 234 234 243 248 251 251 251 249 251 255 261 261 263
265 256 253 252 249 236 228 227 230 229 227 226 228 232 237 247 257 254 244 246 248 249 243 231 226 226 230 235 238 239 240 246 254 251 248 254 256 254 253 255 256 257 261
286 260 258 255 252 246 237 233 231 232 232 232 232 233 237 245 253 259 249 250 248 247 245 238 234 235 236 240 246 245 247 251 257 259 259 260 261 263 262 261 258 262 265
285 287 265 260 255 253 247 240 237 232 233 233 234 232 235 244 252 261 255 249 249 248 244 240 236 240 243 244 245 245 247 250 252 253 254 254 254 255 256 260 262 261 262
272 275 277 263 262 259 249 245 244 243 239 239 239 238 240 248 254 260 256 252 250 249 246 243 240 241 242 244 243 244 246 248 250 251 250 249 247 246 245 253 251 243 208
282 274 271 265 259 262 259 245 242 243 247 246 245 248 250 251 254 260 257 252 251 252 251 249 245 243 242 244 246 247 249 251 253 253 251 249 248 244 243 245 244 201 216
251 256 267 265 261 257 260 256 241 238 244 251 256 259 258 262 263 267 257 256 258 258 254 251 245 242 242 243 245 248 250 252 254 255 255 254 254 251 247 239 226 209 216
239 230 230 265 260 254 261 262 249 239 241 245 250 255 261 265 267 264 262 258 262 260 258 257 256 252 249 248 248 250 250 250 250 252 253 253 255 254 252 250 210 218 249
121 158 178 199 242 253 251 253 257 247 243 245 248 254 261 264 267 266 269 268 266 262 261 260 259 258 255 253 251 250 249 251 252 254 253 253 254 252 246 240 226 232 261
104 129 153 160 160 203 234 237 239 245 247 244 247 251 262 268 269 271 272 271 268 263 259 259 259 260 259 255 252 249 248 248 248 250 248 248 252 251 246 240 236 243 259
87 105 113 143 145 191 186 212 225 231 240 254 258 264 266 268 271 273 274 272 270 268 267 265 262 259 257 253 250 251 250 248 247 247 245 244 246 249 244 242 240 245 249
69 72 75 79 91 117 125 139 162 178 216 239 248 254 263 271 274 276 278 278 276 273 270 266 263 260 257 251 245 249 253 255 252 251 248 244 245 247 247 243 243 243 246
67 64 66 66 68 71 72 95 189 206 225 239 245 259 267 266 285 286 283 283 282 279 275 272 269 266 262 255 250 241 241 247 258 254 250 247 244 245 247 243 245 245 245
60 61 61 62 63 64 64 63 60 65 62 38 352 318 287 287 290 301 296 288 284 282 279 276 274 270 266 260 255 250 244 253 266 266 259 250 245 245 244 246 245 246 245
55 51 49 47 48 47 46 51 51 50 45 27 4 353 343 307 293 291 302 305 291 278 277 275 271 268 267 266 262 260 257 251 251 258 264 260 251 250 249 246 246 247 247
49 48 44 38 38 34 29 27 25 21 16 5 2 357 355 343 324 312 302 293 295 299 295 283 272 269 267 266 262 260 260 256 254 252 256 258 262 261 257 253 248 248 247